Regional Weather Roundup
Issued by NWS Charleston, WV

Home | Current Version | Previous Version | Graphics & Text | Print | Product List | Glossary On
Versions: 1 2 3 4 5 6 7 8 9 10 11 12 13 14 15 16 17 18 19 20 21 22 23 24 25 26 27 28
000
ASUS41 KRLX 150110
RWRRLX
West Virginia Regional Weather Roundup
National Weather Service Charleston WV
900 PM EDT MON APR 14 2014

Note: "fair" indicates few or no clouds below 12,000 feet with no
significant weather and/or obstructions to visibility.

WVZ003-150200-
Northern Panhandle of West Virginia

CITY           SKY/WX    TMP DP  RH WIND       PRES   REMARKS
WHEELING       CLOUDY    63  55  75 S9        29.70S
$$

WVZ009-150200-
Northwest West Virginia

CITY           SKY/WX    TMP DP  RH WIND       PRES   REMARKS
PARKERSBURG    CLOUDY    68  54  60 SE5       29.72R
$$

WVZ006-150200-
Western West Virginia

CITY           SKY/WX    TMP DP  RH WIND       PRES   REMARKS
HUNTINGTON     MOCLDY    69  49  48 S9        29.70R
$$

WVZ015-150200-
West Central West Virginia

CITY           SKY/WX    TMP DP  RH WIND       PRES   REMARKS
CHARLESTON     CLOUDY    71  52  50 S8        29.72R
$$

WVZ031-150200-
North Central West Virginia

CITY           SKY/WX    TMP DP  RH WIND       PRES   REMARKS
CLARKSBURG     MOCLDY    63  53  70 S3        29.74S
MORGANTOWN     MOCLDY    67  52  58 S6        29.75R
$$

WVZ035-042-045-150200-
South Central West Virginia

CITY           SKY/WX    TMP DP  RH WIND       PRES   REMARKS
BECKLEY        MOCLDY    62  52  69 S12G18    29.81F
BLUEFIELD      CLOUDY    63  53  70 S8G18     29.84S
LEWISBURG      CLOUDY    59  54  84 S6        29.84R
$$

WVZ047-150200-
Northern Mountains of West Virginia

CITY           SKY/WX    TMP DP  RH WIND       PRES   REMARKS
ELKINS         MOCLDY    63  50  62 S6        29.80S
$$

WVZ052-150200-
Eastern Panhandle of West Virginia

CITY           SKY/WX    TMP DP  RH WIND       PRES   REMARKS
MARTINSBURG    CLOUDY    71  51  49 S12       29.79R
PETERSBURG     CLOUDY    73  58  60 S10       29.80R
$$



USA.gov is the U.S. government's official web portal to all federal, state and local government web resources and services.